Location: Chagrin Falls Park
(41.4139°N, 81.3865°W)
Time: 07:08:59
(UTC+00:00)

Cosmos 2219 - Pass Details

Date: 29 October 2020
Orbit: 832 x 862 km, 71.1° (Epoch: 28 November)

Event Time Altitude Azimuth Distance (km) Brightness Sun altitude
Rises 23:10:05 0° 337° (NNW) 3,445 6.6 -9.3°
Reaches altitude 10° 23:12:33 10° 339° (NNW) 2,506 5.8 -9.7°
Maximum altitude 23:18:20 78° 66° (ENE) 885 3.2 -10.8°
Drops below altitude 10° 23:24:04 10° 152° (SSE) 2,489 5.5 -11.9°
Sets 23:26:31 0° 154° (SSE) 3,419 6.2 -12.3°
